H1 CPF 1 NER 2021 12 18 9 8521 glonass140 H2 1903001 9140 44299 2021 12 18 0 0 0 2021 12 21 23 45 0 900 1 1 0 0 0 H9 10 0 59566 0.00000 0 -11892764.516 13199423.914 -18268375.509 10 0 59566 900.00000 0 -13855229.408 14029241.667 -16144438.791 10 0 59566 1800.00000 0 -15496446.732 14882635.324 -13706029.297 10 0 59566 2700.00000 0 -16792123.002 15702830.659 -11000664.424 10 0 59566 3600.00000 0 -17730822.741 16431229.876 -8081065.631 10 0 59566 4500.00000 0 -18314212.698 17010010.560 -5004120.757 10 0 59566 5400.00000 0 -18556763.475 17384707.410 -1829764.360 10 0 59566 6300.00000 0 -18484922.779 17506666.435 1380200.981 10 0 59566 7200.00000 0 -18135797.059 17335266.847 4563318.129 10 0 59566 8100.00000 0 -17555399.199 16839816.037 7657698.790 10 0 59566 9000.00000 0 -16796538.206 16001037.126 10603232.084 10 0 59566 9900.00000 0 -15916441.733 14812086.283 13342753.963 10 0 59566 10800.00000 0 -14974213.181 13279057.087 15823154.515 10 0 59566 11700.00000 0 -14028231.501 11420951.034 17996401.836 10 0 59566 12600.00000 0 -13133603.613 9269115.883 19820463.122 10 0 59566 13500.00000 0 -12339776.450 6866175.605 21260106.241 10 0 59566 14400.00000 0 -11688408.280 4264496.748 22287567.541 10 0 59566 15300.00000 0 -11211587.605 1524254.940 22883074.441 10 0 59566 16200.00000 0 -10930473.030 -1288818.602 23035214.202 10 0 59566 17100.00000 0 -10854409.683 -4105918.026 22741143.098 10 0 59566 18000.00000 0 -10980558.010 -6857769.571 22006632.969 10 0 59566 18900.00000 0 -11294049.449 -9477257.693 20845954.979 10 0 59566 19800.00000 0 -11768661.922 -11901963.604 19281603.023 10 0 59566 20700.00000 0 -12367986.629 -14076512.706 17343861.970 10 0 59566 21600.00000 0 -13047037.523 -15954635.407 15070228.490 10 0 59566 22500.00000 0 -13754236.487 -17500857.257 12504694.734 10 0 59566 23400.00000 0 -14433691.682 -18691749.311 9696907.681 10 0 59566 24300.00000 0 -15027674.149 -19516687.587 6701219.217 10 0 59566 25200.00000 0 -15479189.245 -19978090.457 3575644.201 10 0 59566 26100.00000 0 -15734535.169 -20091124.232 380745.766 10 0 59566 27000.00000 0 -15745740.929 -19882889.245 -2821531.302 10 0 59566 27900.00000 0 -15472780.717 -19391120.323 -5969057.047 10 0 59566 28800.00000 0 -14885470.567 -18662455.891 -9000719.598 10 0 59566 29700.00000 0 -13964966.173 -17750348.157 -11857611.907 10 0 59566 30600.00000 0 -12704797.078 -16712702.048 -14484178.741 10 0 59566 31500.00000 0 -11111391.834 -15609342.176 -16829301.206 10 0 59566 32400.00000 0 -9204069.825 -14499414.533 -18847297.363 10 0 59566 33300.00000 0 -7014497.890 -13438832.569 -20498818.962 10 0 59566 34200.00000 0 -4585632.337 -12477875.574 -21751626.288 10 0 59566 35100.00000 0 -1970188.626 -11659041.061 -22581225.520 10 0 59566 36000.00000 0 771299.093 -11015242.141 -22971355.628 10 0 59566 36900.00000 0 3572748.890 -10568426.522 -22914314.689 10 0 59566 37800.00000 0 6365038.716 -10328675.894 -22411118.704 10 0 59566 38700.00000 0 9078646.921 -10293824.217 -21471489.149 10 0 59566 39600.00000 0 11646315.754 -10449611.406 -20113668.934 10 0 59566 40500.00000 0 14005626.827 -10770366.152 -18364069.841 10 0 59566 41400.00000 0 16101380.991 -11220188.970 -16256757.891 10 0 59566 42300.00000 0 17887682.968 -11754585.199 -13832786.577 10 0 59566 43200.00000 0 19329643.610 -12322478.261 -11139390.995 10 0 59566 44100.00000 0 20404628.688 -12868517.108 -8229058.979 10 0 59566 45000.00000 0 21103002.340 -13335579.099 -5158498.069 10 0 59566 45900.00000 0 21428334.912 -13667361.053 -1987519.410 10 0 59566 46800.00000 0 21397067.798 -13810947.514 1222138.574 10 0 59566 47700.00000 0 21037650.975 -13719246.335 4408022.476 10 0 59566 48600.00000 0 20389191.499 -13353187.515 7508187.401 10 0 59566 49500.00000 0 19499671.832 -12683591.651 10462406.859 10 0 59566 50400.00000 0 18423814.960 -11692628.710 13213344.716 10 0 59566 51300.00000 0 17220687.812 -10374805.503 15707666.133 10 0 59566 52200.00000 0 15951145.027 -8737440.413 17897066.096 10 0 59566 53100.00000 0 14675221.252 -6800605.712 19739196.074 10 0 59566 54000.00000 0 13449581.562 -4596540.102 21198471.905 10 0 59566 54900.00000 0 12325136.480 -2168556.112 22246748.541 10 0 59566 55800.00000 0 11344920.596 430512.145 22863850.054 10 0 59566 56700.00000 0 10542322.234 3140256.738 23037946.143 10 0 59566 57600.00000 0 9939736.684 5894959.112 22765769.240 10 0 59566 58500.00000 0 9547697.763 8626075.881 22052669.063 10 0 59566 59400.00000 0 9364522.585 11264845.642 20912504.295 10 0 59566 60300.00000 0 9376483.256 13744910.445 19367373.718 10 0 59566 61200.00000 0 9558497.596 16004844.890 17447191.871 10 0 59566 62100.00000 0 9875309.607 17990489.687 15189116.838 10 0 59566 63000.00000 0 10283110.278 19656994.280 12636840.324 10 0 59566 63900.00000 0 10731531.097 20970484.798 9839752.738 10 0 59566 64800.00000 0 11165927.060 21909288.784 6851998.217 10 0 59566 65700.00000 0 11529853.734 22464666.172 3731436.753 10 0 59566 66600.00000 0 11767634.568 22641016.087 538532.615 10 0 59566 67500.00000 0 11826910.484 22455550.711 -2664810.214 10 0 59566 68400.00000 0 11661064.086 21937449.554 -5816443.520 10 0 59566 69300.00000 0 11231415.700 21126529.087 -8855178.283 10 0 59566 70200.00000 0 10509097.603 20071483.117 -11721972.694 10 0 59566 71100.00000 0 9476525.944 18827767.343 -14361081.586 10 0 59566 72000.00000 0 8128406.563 17455216.676 -16721144.506 10 0 59566 72900.00000 0 6472230.239 16015495.288 -18756190.889 10 0 59566 73800.00000 0 4528234.260 14569486.553 -20426542.335 10 0 59566 74700.00000 0 2328829.641 13174732.772 -21699593.803 10 0 59566 75600.00000 0 -82484.233 11883032.581 -22550458.048 10 0 59566 76500.00000 0 -2652674.170 10738297.383 -22962460.162 10 0 59566 77400.00000 0 -5321133.575 9774757.374 -22927471.966 10 0 59566 78300.00000 0 -8021968.181 9015592.972 -22446079.158 10 0 59566 79200.00000 0 -10686512.627 8472049.545 -21527577.330 10 0 59566 80100.00000 0 -13245973.324 8143072.894 -20189796.337 10 0 59566 81000.00000 0 -15634087.479 8015480.829 -18458755.942 10 0 59566 81900.00000 0 -17789687.212 8064663.353 -16368159.024 10 0 59566 82800.00000 0 -19659061.270 8255781.377 -13958732.088 10 0 59566 83700.00000 0 -21198015.356 8545412.543 -11277425.984 10 0 59566 84600.00000 0 -22373544.670 8883573.455 -8376492.747 10 0 59566 85500.00000 0 -23165048.614 9216031.501 -5312457.289 10 0 59567 0.00000 0 -23565037.172 9486806.894 -2145005.175 10 0 59567 900.00000 0 -23579300.304 9640757.629 1064192.433 10 0 59567 1800.00000 0 -23226533.998 9626136.133 4252688.185 10 0 59567 2700.00000 0 -22537441.056 9397008.593 7358483.261 10 0 59567 3600.00000 0 -21553345.597 8915433.291 10321238.284 10 0 59567 4500.00000 0 -20324381.650 8153305.357 13083447.758 10 0 59567 5400.00000 0 -18907333.694 7093789.774 15591554.596 10 0 59567 6300.00000 0 -17363221.189 5732282.131 17796983.243 10 0 59567 7200.00000 0 -15754729.468 4076856.932 19657071.824 10 0 59567 8100.00000 0 -14143595.033 2148184.800 21135886.262 10 0 59567 9000.00000 0 -12588054.507 -21077.869 22204901.911 10 0 59567 9900.00000 0 -11140463.203 -2387401.292 22843540.922 10 0 59567 10800.00000 0 -9845181.530 -4897950.746 23039556.464 10 0 59567 11700.00000 0 -8736815.912 -7492546.519 22789257.762 10 0 59567 12600.00000 0 -7838885.900 -10105934.852 22097572.638 10 0 59567 13500.00000 0 -7162971.386 -12670276.962 20977947.121 10 0 59567 14400.00000 0 -6708373.949 -15117754.441 19452084.335 10 0 59567 15300.00000 0 -6462305.273 -17383184.467 17549527.558 10 0 59567 16200.00000 0 -6400593.910 -19406537.978 15307095.008 10 0 59567 17100.00000 0 -6488880.312 -21135257.645 12768176.352 10 0 59567 18000.00000 0 -6684250.039 -22526280.422 9981903.546 10 0 59567 18900.00000 0 -6937236.720 -23547681.343 7002210.861 10 0 59567 19800.00000 0 -7194110.952 -24179870.523 3886801.110 10 0 59567 20700.00000 0 -7399359.164 -24416293.423 696037.220 10 0 59567 21600.00000 0 -7498248.221 -24263604.941 -2508220.236 10 0 59567 22500.00000 0 -7439367.599 -23741309.502 -5663807.537 10 0 59567 23400.00000 0 -7177041.491 -22880881.593 -8709461.360 10 0 59567 24300.00000 0 -6673508.282 -21724402.905 -11586008.087 10 0 59567 25200.00000 0 -5900774.211 -20322772.570 -14237515.618 10 0 59567 26100.00000 0 -4842061.482 -18733564.993 -16612384.915 10 0 59567 27000.00000 0 -3492787.853 -17018624.776 -18664359.662 10 0 59567 27900.00000 0 -1861034.301 -15241499.357 -20353433.971 10 0 59567 28800.00000 0 32521.187 -13464817.027 -21646639.845 10 0 59567 29700.00000 0 2155203.213 -11747720.391 -22518698.612 10 0 59567 30600.00000 0 4463449.057 -10143463.066 -22952523.056 10 0 59567 31500.00000 0 6904384.604 -8697270.729 -22939559.855 10 0 59567 32400.00000 0 9417801.852 -7444556.471 -22479965.071 10 0 59567 33300.00000 0 11938456.518 -6409565.518 -21582608.637 10 0 59567 34200.00000 0 14398590.429 -5604506.341 -20264907.157 10 0 59567 35100.00000 0 16730573.649 -5029204.502 -18552487.744 10 0 59567 36000.00000 0 18869555.924 -4671293.409 -16478689.053 10 0 59567 36900.00000 0 20756016.180 -4506933.318 -14083909.050 10 0 59567 37800.00000 0 22338102.994 -4502027.269 -11414812.287 10 0 59567 38700.00000 0 23573667.607 -4613881.368 -8523412.460 10 0 59567 39600.00000 0 24431903.912 -4793237.800 -5466048.845 10 0 59567 40500.00000 0 24894526.674 -4986592.896 -2302277.466 10 0 59567 41400.00000 0 24956438.881 -5138700.422 906300.294 10 0 59567 42300.00000 0 24625860.963 -5195152.485 4097247.502 10 0 59567 43200.00000 0 23923917.661 -5104927.243 7208515.193 10 0 59567 44100.00000 0 22883701.356 -4822794.412 10179654.734 10 0 59567 45000.00000 0 21548852.866 -4311475.935 12952994.636 10 0 59567 45900.00000 0 19971720.943 -3543470.029 15474758.591 10 0 59567 46800.00000 0 18211179.093 -2502461.451 17696103.132 10 0 59567 47700.00000 0 16330192.336 -1184258.667 19574055.234 10 0 59567 48600.00000 0 14393236.334 402781.287 21072332.684 10 0 59567 49500.00000 0 12463676.770 2237857.912 22162032.571 10 0 59567 50400.00000 0 10601217.899 4288357.814 22822176.030 10 0 59567 51300.00000 0 8859525.580 6510984.618 23040100.176 10 0 59567 52200.00000 0 7284122.313 8853341.630 22811691.053 10 0 59567 53100.00000 0 5910640.251 11255902.142 22141454.183 10 0 59567 54000.00000 0 4763503.009 13654286.620 21042422.114 10 0 59567 54900.00000 0 3855089.381 15981753.580 19535901.067 10 0 59567 55800.00000 0 3185412.262 18171802.115 17651061.465 10 0 59567 56700.00000 0 2742324.865 20160779.522 15424379.733 10 0 59567 57600.00000 0 2502244.721 21890387.061 12898941.295 10 0 59567 58500.00000 0 2431364.687 23309980.679 10123617.218 10 0 59567 59400.00000 0 2487299.991 24378571.763 7152129.263 10 0 59567 60300.00000 0 2621102.231 25066444.929 4042020.284 10 0 59567 61200.00000 0 2779555.862 25356325.318 853548.971 10 0 59567 62100.00000 0 2907660.587 25244046.312 -2351470.446 10 0 59567 63000.00000 0 2951195.088 24738689.105 -5510861.639 10 0 59567 63900.00000 0 2859253.694 23862187.435 -8563289.776 10 0 59567 64800.00000 0 2586648.379 22648413.127 -11449452.050 10 0 59567 65700.00000 0 2096073.755 21141779.756 -14113231.825 10 0 59567 66600.00000 0 1359942.403 19395422.133 -16502793.627 10 0 59567 67500.00000 0 361811.463 17469027.144 -18571597.299 10 0 59567 68400.00000 0 -902661.603 15426406.265 -20279311.130 10 0 59567 69300.00000 0 -2425276.434 13332911.117 -21592605.613 10 0 59567 70200.00000 0 -4185381.228 11252800.100 -22485811.860 10 0 59567 71100.00000 0 -6150496.610 9246666.312 -22941431.317 10 0 59567 72000.00000 0 -8277447.746 7369034.562 -22950486.206 10 0 59567 72900.00000 0 -10513959.002 5666228.175 -22512703.304 10 0 59567 73800.00000 0 -12800645.818 4174595.009 -21636526.843 10 0 59567 74700.00000 0 -15073321.278 2919167.052 -20338959.686 10 0 59567 75600.00000 0 -17265521.451 1912809.598 -18645235.370 10 0 59567 76500.00000 0 -19311143.853 1155895.285 -16588326.965 10 0 59567 77400.00000 0 -21147088.293 636516.025 -14208302.153 10 0 59567 78300.00000 0 -22715788.954 331222.872 -11551537.135 10 0 59567 79200.00000 0 -23967530.978 206261.293 -8669804.971 10 0 59567 80100.00000 0 -24862453.741 219248.168 -5619256.827 10 0 59567 81000.00000 0 -25372156.364 321217.835 -2459316.874 10 0 59567 81900.00000 0 -25480837.946 458948.765 748486.553 10 0 59567 82800.00000 0 -25185924.891 577470.557 3941729.438 10 0 59567 83700.00000 0 -24498159.707 622643.405 7058315.502 10 0 59567 84600.00000 0 -23441148.581 543699.395 10037689.725 10 0 59567 85500.00000 0 -22050388.094 295637.017 12822017.458 10 0 59568 0.00000 0 -20371813.486 -158632.972 15357305.702 10 0 59568 900.00000 0 -18459929.756 -846481.577 17594446.107 10 0 59568 1800.00000 0 -16375607.264 -1784170.936 19490156.579 10 0 59568 2700.00000 0 -14183631.750 -2975938.177 21007808.742 10 0 59568 3600.00000 0 -11950113.409 -4413591.386 22118123.020 10 0 59568 4500.00000 0 -9739861.918 -6076634.604 22799720.697 10 0 59568 5400.00000 0 -7613835.941 -7932916.517 23039523.563 10 0 59568 6300.00000 0 -5626771.845 -9939776.045 22832994.804 10 0 59568 7200.00000 0 -3825088.559 -12045637.560 22184217.567 10 0 59568 8100.00000 0 -2245153.730 -14191990.194 21105810.490 10 0 59568 9000.00000 0 -911981.311 -16315670.088 19618682.138 10 0 59568 9900.00000 0 161587.015 -18351351.893 17751629.015 10 0 59568 10800.00000 0 975184.081 -20234147.336 15540784.414 10 0 59568 11700.00000 0 1540691.798 -21902204.066 13028927.906 10 0 59568 12600.00000 0 1881498.271 -23299197.624 10264667.824 10 0 59568 13500.00000 0 2031269.111 -24376613.535 7301511.375 10 0 59568 14400.00000 0 2032284.644 -25095724.751 4196839.229 10 0 59568 15300.00000 0 1933412.847 -25429181.859 1010803.496 10 0 59568 16200.00000 0 1787803.216 -25362149.204 -2194830.385 10 0 59568 17100.00000 0 1650398.659 -24892938.666 -5357876.006 10 0 59568 18000.00000 0 1575370.430 -24033113.521 -8416929.637 10 0 59568 18900.00000 0 1613584.705 -22807056.902 -11312561.934 10 0 59568 19800.00000 0 1810208.429 -21251021.671 -13988474.416 10 0 59568 20700.00000 0 2202556.464 -19411700.308 -16392597.838 10 0 59568 21600.00000 0 2818272.277 -17344373.670 -18478110.779 10 0 59568 22500.00000 0 3673920.526 -15110715.143 -20204358.124 10 0 59568 23400.00000 0 4774052.742 -12776341.466 -21537651.017 10 0 59568 24300.00000 0 6110787.449 -10408212.142 -22451932.221 10 0 59568 25200.00000 0 7663924.504 -8071985.869 -22929293.349 10 0 59568 26100.00000 0 9401590.773 -5829444.428 -22960333.295 10 0 59568 27000.00000 0 11281391.861 -3736091.644 -22544350.295 10 0 59568 27900.00000 0 13252023.077 -1839027.773 -21689363.249 10 0 59568 28800.00000 0 15255273.154 -175188.260 -20411961.287 10 0 59568 29700.00000 0 17228337.369 1229979.620 -18736983.996 10 0 59568 30600.00000 0 19106343.357 2363347.200 -16697038.085 10 0 59568 31500.00000 0 20824983.435 3224407.662 -14331859.761 10 0 59568 32400.00000 0 22323142.494 3825040.385 -11687535.213 10 0 59568 33300.00000 0 23545410.479 4188747.582 -8815594.741 10 0 59568 34200.00000 0 24444373.048 4349396.979 -5771998.836 10 0 59568 35100.00000 0 24982583.534 4349525.475 -2616036.851 10 0 59568 36000.00000 0 25134132.810 4238277.416 590839.187 10 0 59568 36900.00000 0 24885750.907 4069066.685 3786221.624 10 0 59568 37800.00000 0 24237394.331 3897063.433 6907970.371 10 0 59568 38700.00000 0 23202294.992 3776613.472 9895427.453 10 0 59568 39600.00000 0 21806469.653 3758700.828 12690598.354 10 0 59568 40500.00000 0 20087711.600 3888561.636 15239276.855 10 0 59568 41400.00000 0 18094107.931 4203550.666 17492091.571 10 0 59568 42300.00000 0 15882145.625 4731350.528 19405454.262 10 0 59568 43200.00000 0 13514486.204 5488598.790 20942392.499 10 0 59568 44100.00000 0 11057502.185 6479990.319 22073251.786 10 0 59568 45000.00000 0 8578677.771 7697892.082 22776254.925 10 0 59568 45900.00000 0 6143981.201 9122486.208 23037909.350 10 0 59568 46800.00000 0 3815316.717 10722435.270 22853255.903 10 0 59568 47700.00000 0 1648160.429 12456042.149 22225955.416 10 0 59568 48600.00000 0 -310523.718 14272856.696 21168212.192 10 0 59568 49500.00000 0 -2024003.310 16115663.070 19700536.240 10 0 59568 50400.00000 0 -3467062.668 17922766.050 17851348.800 10 0 59568 51300.00000 0 -4626802.220 19630482.312 15656438.281 10 0 59568 52200.00000 0 -5502920.247 21175734.109 13158276.316 10 0 59568 53100.00000 0 -6107466.332 22498638.271 10405206.133 10 0 59568 54000.00000 0 -6464077.629 23544983.350 7450517.801 10 0 59568 54900.00000 0 -6606730.321 24268491.932 4351427.057 10 0 59568 55800.00000 0 -6578058.802 24632773.573 1167976.561 10 0 59568 56700.00000 0 -6427313.248 24612886.320 -2038119.983 10 0 59568 57600.00000 0 -6208041.452 24196440.629 -5204669.033 10 0 59568 58500.00000 0 -5975592.645 23384198.375 -8270200.854 10 0 59568 59400.00000 0 -5784548.747 22190140.475 -11175162.343 10 0 59568 60300.00000 0 -5686191.899 20640998.832 -13863075.770 10 0 59568 61200.00000 0 -5726115.835 18775270.700 -16281640.515 10 0 59568 62100.00000 0 -5942082.957 16641755.307 -18383756.039 10 0 59568 63000.00000 0 -6362218.821 14297672.664 -20128445.731 10 0 59568 63900.00000 0 -7003621.699 11806442.239 -21481663.055 10 0 59568 64800.00000 0 -7871447.546 9235213.441 -22416963.834 10 0 59568 65700.00000 0 -8958510.740 6652250.499 -22916030.992 10 0 59568 66600.00000 0 -10245419.155 4124280.595 -22969040.936 10 0 59568 67500.00000 0 -11701239.590 1713915.744 -22574863.854 10 0 59568 68400.00000 0 -13284667.075 -522744.076 -21741093.403 10 0 59568 69300.00000 0 -14945650.015 -2538226.420 -20483904.637 10 0 59568 70200.00000 0 -16627403.679 -4295432.274 -18827742.385 10 0 59568 71100.00000 0 -18268727.809 -5768939.609 -16804845.757 10 0 59568 72000.00000 0 -19806530.818 -6945810.461 -14454617.820 10 0 59568 72900.00000 0 -21178454.058 -7825868.539 -11822852.759 10 0 59568 73800.00000 0 -22325485.052 -8421436.878 -8960835.829 10 0 59568 74700.00000 0 -23194448.843 -8756548.006 -5924334.334 10 0 59568 75600.00000 0 -23740271.709 -8865661.762 -2772500.134 10 0 59568 76500.00000 0 -23927921.198 -8791946.843 433293.871 10 0 59568 77400.00000 0 -23733940.252 -8585200.743 3630659.307 10 0 59568 78300.00000 0 -23147510.713 -8299498.102 6757415.285 10 0 59568 79200.00000 0 -22171001.644 -7990668.740 9752803.916 10 0 59568 80100.00000 0 -20819979.949 -7713713.587 12558673.818 10 0 59568 81000.00000 0 -19122683.651 -7520268.844 15120608.249 10 0 59568 81900.00000 0 -17118980.779 -7456226.152 17388975.954 10 0 59568 82800.00000 0 -14858858.352 -7559609.357 19319884.730 10 0 59568 83700.00000 0 -12400505.287 -7858797.134 20876020.155 10 0 59568 84600.00000 0 -9808069.473 -8371165.749 22027354.441 10 0 59568 85500.00000 0 -7149182.433 -9102208.332 22751713.091 10 0 59569 0.00000 0 -4492354.070 -10045166.861 23035189.884 10 0 59569 900.00000 0 -1904343.229 -11181192.376 22872403.654 10 0 59569 1800.00000 0 552384.696 -12480025.160 22266592.749 10 0 59569 2700.00000 0 2822014.246 -13901168.339 21229546.654 10 0 59569 3600.00000 0 4857451.107 -15395505.144 19781376.024 10 0 59569 4500.00000 0 6622025.489 -16907293.605 17950125.731 10 0 59569 5400.00000 0 8090758.536 -18376456.362 15771237.922 10 0 59569 6300.00000 0 9251140.767 -19741071.119 13286874.630 10 0 59569 7200.00000 0 10103391.333 -20939958.771 10545112.053 10 0 59569 8100.00000 0 10660188.260 -21915261.883 7599020.936 10 0 59569 9000.00000 0 10945881.552 -22614906.272 4505649.682 10 0 59569 9900.00000 0 10995222.372 -22994842.760 1324928.933 10 0 59569 10800.00000 0 10851661.738 -23020974.951 -1881482.017 10 0 59569 11700.00000 0 10565290.214 -22670691.501 -5051385.230 10 0 59569 12600.00000 0 10190505.237 -21933937.499 -8123247.704 10 0 59569 13500.00000 0 9783504.446 -20813778.637 -11037395.293 10 0 59569 14400.00000 0 9399710.918 -19326432.804 -13737173.664 10 0 59569 15300.00000 0 9091239.345 -17500766.061 -16170053.358 10 0 59569 16200.00000 0 8904510.804 -15377272.364 -18288657.104 10 0 59569 17100.00000 0 8878117.663 -13006578.040 -20051688.973 10 0 59569 18000.00000 0 9041029.858 -10447532.189 -21424746.657 10 0 59569 18900.00000 0 9411219.544 -7764961.560 -22381000.632 10 0 59569 19800.00000 0 9994763.539 -5027182.658 -22901726.374 10 0 59569 20700.00000 0 10785462.892 -2303374.359 -22976678.670 10 0 59569 21600.00000 0 11764997.020 339079.886 -22604300.155 10 0 59569 22500.00000 0 12903607.275 2837169.624 -21791759.398 10 0 59569 23400.00000 0 14161282.192 5134647.255 -20554817.173 10 0 59569 24300.00000 0 15489395.306 7184130.550 -18917523.034 10 0 59569 25200.00000 0 16832726.956 8948830.168 -16911747.624 10 0 59569 26100.00000 0 18131784.935 10403830.159 -14576559.662 10 0 59569 27000.00000 0 19325325.812 11536868.505 -11957459.741 10 0 59569 27900.00000 0 20352970.030 12348585.846 -9105486.112 10 0 59569 28800.00000 0 21157799.547 12852233.210 -6076210.564 10 0 59569 29700.00000 0 21688827.539 13072852.683 -2928644.808 10 0 59569 30600.00000 0 21903235.011 13045967.466 275920.302 10 0 59569 31500.00000 0 21768279.234 12815838.620 3475118.754 10 0 59569 32400.00000 0 21262793.041 12433364.256 6606732.005 10 0 59569 33300.00000 0 20378211.656 11953711.909 9609905.366 10 0 59569 34200.00000 0 19119083.968 11433785.861 12426333.603 10 0 59569 35100.00000 0 17503047.229 10929637.739 15001392.286 10 0 59569 36000.00000 0 15560266.797 10493930.573 17285192.912 10 0 59569 36900.00000 0 13332365.098 10173563.602 19233541.701 10 0 59569 37800.00000 0 10870885.129 10007557.794 20808784.352 10 0 59569 38700.00000 0 8235352.873 10025290.480 21980521.622 10 0 59569 39600.00000 0 5491019.367 10245152.512 22726183.213 10 0 59569 40500.00000 0 2706375.784 10673683.362 23031450.407 10 0 59569 41400.00000 0 -49456.253 11305219.566 22890520.665 10 0 59569 42300.00000 0 -2709352.128 12122070.574 22306210.220 10 0 59569 43200.00000 0 -5210722.264 13095214.307 21289893.539 10 0 59569 44100.00000 0 -7497857.445 14185483.371 19861281.225 10 0 59569 45000.00000 0 -9523986.014 15345192.709 18048040.609 10 0 59569 45900.00000 0 -11252959.559 16520141.360 15885265.964 10 0 59569 46800.00000 0 -12660498.674 17651905.525 13414807.741 10 0 59569 47700.00000 0 -13734948.353 18680327.906 10684472.836 10 0 59569 48600.00000 0 -14477512.532 19546100.026 7747110.191 10 0 59569 49500.00000 0 -14901958.741 20193329.935 4659598.243 10 0 59569 50400.00000 0 -15033805.488 20571987.952 1481752.886 10 0 59569 51300.00000 0 -14909026.594 20640127.708 -1724823.784 10 0 59569 52200.00000 0 -14572326.822 20365788.664 -4897932.250 10 0 59569 53100.00000 0 -14075061.134 19728499.217 -7975979.055 10 0 59569 54000.00000 0 -13472885.089 18720315.869 -10899171.755 10 0 59569 54900.00000 0 -12823235.406 17346353.097 -13610682.055 10 0 59569 55800.00000 0 -12182747.025 15624779.829 -16057754.128 10 0 59569 56700.00000 0 -11604716.030 13586280.663 -18192736.249 10 0 59569 57600.00000 0 -11136715.986 11273002.408 -19974015.192 10 0 59569 58500.00000 0 -10818469.037 8737028.286 -21366834.647 10 0 59569 59400.00000 0 -10680062.486 6038441.927 -22343981.233 10 0 59569 60300.00000 0 -10740587.129 3243060.682 -22886324.169 10 0 59569 61200.00000 0 -11007255.898 419931.910 -22983197.498 10 0 59569 62100.00000 0 -11475041.054 -2361304.087 -22632616.834 10 0 59569 63000.00000 0 -12126846.312 -5033074.968 -21841325.792 10 0 59569 63900.00000 0 -12934207.451 -7532450.272 -20624670.609 10 0 59569 64800.00000 0 -13858492.560 -9803521.117 -19006304.864 10 0 59569 65700.00000 0 -14852551.580 -11799486.418 -17017729.636 10 0 59569 66600.00000 0 -15862745.571 -13484358.504 -14697677.815 10 0 59569 67500.00000 0 -16831269.672 -14834217.176 -12091354.583 10 0 59569 68400.00000 0 -17698671.008 -15837960.279 -9249549.101 10 0 59569 69300.00000 0 -18406454.260 -16497520.226 -6227635.338 10 0 59569 70200.00000 0 -18899663.758 -16827538.741 -3084482.366 10 0 59569 71100.00000 0 -19129331.908 -16854515.217 118703.627 10 0 59569 72000.00000 0 -19054689.536 -16615466.435 3319581.752 10 0 59569 72900.00000 0 -18645044.054 -16156156.324 6455898.672 10 0 59569 73800.00000 0 -17881245.700 -15528972.462 9466705.835 10 0 59569 74700.00000 0 -16756679.909 -14790540.823 12293547.106 10 0 59569 75600.00000 0 -15277744.151 -13999180.993 14881593.270 10 0 59569 76500.00000 0 -13463789.538 -13212310.229 17180701.345 10 0 59569 77400.00000 0 -11346530.100 -12483906.348 19146378.508 10 0 59569 78300.00000 0 -8968944.861 -11862136.258 20740632.816 10 0 59569 79200.00000 0 -6383718.774 -11387249.379 21932695.417 10 0 59569 80100.00000 0 -3651287.501 -11089823.554 22699601.658 10 0 59569 81000.00000 0 -837566.942 -10989435.943 23026621.330 10 0 59569 81900.00000 0 1988539.042 -11093813.404 22907531.154 10 0 59569 82800.00000 0 4757750.469 -11398496.867 22344725.397 10 0 59569 83700.00000 0 7403035.935 -11887032.898 21349163.329 10 0 59569 84600.00000 0 9862143.229 -12531683.934 19940154.972 10 0 59569 85500.00000 0 12079932.731 -13294627.371 18144989.269 99